Location: Newark
(25.6108°S, 54.5803°W)
Time: 17:29:09
(UTC+00:00)

Courier 1B Rocket - Pass Details

Date: 28 October 2020
Orbit: 920 x 1202 km, 28.2° (Epoch: 22 November)

Event Time Altitude Azimuth Distance (km) Brightness Sun altitude
Rises 17:07:26 0° 272° (W) 3,564 8.3 62.4°
Reaches altitude 10° 17:11:06 10° 293° (WNW) 2,609 7.9 61.7°
Maximum altitude 17:14:45 16° 329° (NNW) 2,205 7.5 60.9°
Drops below altitude 10° 17:18:25 10° 6° (N) 2,624 7.5 60.1°
Sets 17:22:09 0° 26° (NNE) 3,596 7.9 59.3°
